Home   Weather   Playa del Carmen   Past weeks

Flag for Mexico Past Weather in Playa del Carmen, Quintana Roo, Mexico — Yesterday and Last 2 Weeks

Now
84 °F

Scattered clouds.


Feels Like: 87 °F
Forecast: 75 / 84 °F
Wind: 9 mph from South

Location: Cozumel Civ / Mil

Current Time: Jan 19, 2017 at 2:31:55 pm

Latest Report: Jan 19, 2017 at 1:42 pm


Visibility: 8 mi

Pressure: 29.96 "Hg

Humidity: 55%

Dew Point: 66 °F

Location of Playa del CarmenLocation

Past Weather in Playa del Carmen — Graph

°F

Playa del Carmen Temperature Yesterday

Maximum temperature yesterday: 84 °F (at 12:40 pm)
Minimum temperature yesterday: 70 °F (at 10:43 pm)
Average temperature yesterday: 76 °F

High & Low Weather Summary for the Past Weeks

 TemperatureHumidityPressure
High86 °F (Jan 4, 2:40 pm)100% (Jan 4, 9:47 pm)30.42 "Hg (Jan 4, 9:47 pm)
Low68 °F (Jan 6, 5:57 am)50% (Jan 8, 8:43 pm)29.86 "Hg (Jan 5, 4:48 pm)
Average75 °F77%30.09 "Hg
* Reported Jan 4 12:46 pm — Jan 19 12:42 pm, Playa del Carmen, Weather by CustomWeather, © 2017

Note: Actual official high and low records may vary slightly from our data, if they occured in-between our weather recording intervals... More about our weather records

Advertising

Playa del Carmen Weather History for the Previous 24 Hours

Scroll right to see more
 ConditionsComfort  
Time TempWeatherWind HumidityBarometerVisibility
12:42 pm
Thu, Jan 19
82 °FScattered clouds.6 mph70%30.01 "Hg8 mi
11:41 am81 °FScattered clouds.10 mph74%30.03 "Hg8 mi
10:40 am82 °FScattered clouds.9 mph70%30.02 "Hg8 mi
9:44 am81 °FPassing clouds.8 mph74%30.03 "Hg8 mi
8:46 am75 °FSunny.3 mph89%30.01 "Hg8 mi
7:43 am68 °FClear.No wind100%29.99 "Hg8 mi
6:44 am70 °FPassing clouds.No wind94%29.99 "Hg7 mi
5:43 am68 °FPassing clouds.No wind94%29.98 "Hg7 mi
4:45 am70 °FPassing clouds.No wind94%29.97 "Hg7 mi
3:41 am68 °FPassing clouds.No wind100%29.99 "Hg7 mi
2:41 am68 °FPassing clouds.No wind94%29.99 "Hg7 mi
1:41 am68 °FPassing clouds.No wind100%30.01 "Hg7 mi
11:44 pm
Wed, Jan 18
70 °FPassing clouds.No wind94%30.04 "Hg7 mi
10:43 pm70 °FPassing clouds.5 mph94%30.04 "Hg7 mi
9:49 pm72 °FPassing clouds.No wind94%30.05 "Hg7 mi
8:40 pm72 °FPassing clouds.No wind94%30.03 "Hg8 mi
7:41 pm73 °FPassing clouds.3 mph89%30.02 "Hg8 mi
6:41 pm77 °FPassing clouds.5 mph83%30.03 "Hg8 mi
5:41 pm79 °FScattered clouds.9 mph74%30.01 "Hg8 mi
4:44 pm82 °FScattered clouds.6 mph70%30.01 "Hg8 mi
3:42 pm82 °FScattered clouds.10 mph70%30.02 "Hg8 mi
2:41 pm82 °FScattered clouds.7 mph66%30.02 "Hg8 mi
Weather by CustomWeather, © 2017

See weather overviewHow to use our weather pages